Flag for Canada Weather past 2 weeks in Summerside, Prince Edward Island, Canada

Now
57 °F

Cool.


Feels Like: 53 °F
Forecast: 57 / 72 °F
Wind: 21 mph from Southwest

Location: Summerside Airport

Current Time: May 27, 2015 at 1:52:53 AM

Latest Report: May 27, 2015 at 1:00 AM


Visibility: N/A

Pressure: 29.98 "Hg

Humidity: 90%

Dew point: 54 °F

Location of SummersideLocation

Historic Weather in Summerside — Graph

°F

Summerside temperature yesterday

Maximum temperature yesterday: 60 °F (at 5:00 PM)
Minimum temperature yesterday: 54 °F (at 7:00 AM)
Average temperature yesterday: 57 °F

Past Weeks' High & Low Weather Summary

 TemperatureHumidityPressure
High75 °F (May 25, 3:00 PM)98% (May 18, 2:00 AM)30.33 "Hg (May 18, 2:00 AM)
Low38 °F (May 13, 7:00 AM)27% (May 16, 6:00 PM)29.40 "Hg (May 20, 3:00 PM)
Average53 °F69%29.96 "Hg
* Reported Midnight between May 11 and May 12 — Midnight between May 26 and May 27, Summerside, Weather by CustomWeather, © 2015

Note: Actual official high and low records may vary slightly from our data, if they occured in-between our weather recording intervals... More about our weather records

Advertising

Summerside weather history for previous 24 hours

 ConditionsComfort  
Time TempWeatherWind HumidityBarometerVisibility
12:00 AM
Wed, May 27
57 °FCool.23 mph89%29.98 "HgN/A
11:00 PM
Tue, May 26
58 °FCool.24 mph88%29.98 "HgN/A
10:00 PM58 °FCool.24 mph89%29.98 "HgN/A
9:00 PM58 °FCool.23 mph89%29.97 "HgN/A
8:00 PM58 °FCool.20 mph89%29.97 "HgN/A
7:00 PM59 °FCool.24 mph88%29.96 "HgN/A
6:00 PM60 °FCool.26 mph85%29.95 "HgN/A
5:00 PM60 °FCool.26 mph85%29.94 "HgN/A
4:00 PM60 °FCool.24 mph88%29.94 "HgN/A
3:00 PM59 °FCool.23 mph89%29.96 "HgN/A
2:00 PM58 °FCool.25 mph91%29.96 "HgN/A
1:00 PM57 °FCool.23 mph94%29.98 "HgN/A
11:00 AM57 °FCool.17 mph97%30.03 "HgN/A
10:00 AM57 °FCool.21 mph94%30.03 "HgN/A
9:00 AM56 °FCool.15 mph94%30.06 "HgN/A
8:00 AM55 °FCool.17 mph92%30.09 "HgN/A
7:00 AM54 °FCool.15 mph88%30.10 "HgN/A
6:00 AM57 °FCool.9 mph79%30.09 "HgN/A
5:00 AM55 °FCool.16 mph81%30.08 "HgN/A
4:00 AM56 °FCool.17 mph80%30.07 "HgN/A
3:00 AM55 °FCool.16 mph80%30.06 "HgN/A
2:00 AM55 °FCool.15 mph80%30.07 "HgN/A
1:00 AM56 °FCool.14 mph77%30.07 "HgN/A
Weather by CustomWeather, © 2015

See weather overviewHow to use our weather pages